• In Deutschland
  • Länderverzeichnis
  • Für 7 Tage
  • Wassertemperatur
  • Satellitenkarten
  • Wetterkarte
  • Widgets
  • user-avatar
    Anmelden

    Stündliche Wetter Weimar

    Heute, 21 Februar, Mittwoch

    Zeit Temperatur Niederschläge Wind Luftdruck Luftfeuchtigkeit
    00:00 -4°C° 0 mm 2 m/S 742 mmHg 86%
    01:00 -4°C° 0 mm 2 m/S 742 mmHg 86%
    02:00 -4°C° 0 mm 2 m/S 743 mmHg 87%
    03:00 -5°C° 0 mm 2 m/S 743 mmHg 87%
    04:00 -5°C° 0 mm 2 m/S 743 mmHg 87%
    05:00 -5°C° 0 mm 2 m/S 743 mmHg 88%
    06:00 -5°C° 0 mm 2 m/S 743 mmHg 89%
    07:00 -5°C° 0 mm 2 m/S 744 mmHg 91%
    08:00 -5°C° 0 mm 3 m/S 744 mmHg 86%
    09:00 -4°C° 0 mm 3 m/S 744 mmHg 80%
    10:00 -3°C° 0 mm 4 m/S 744 mmHg 75%
    11:00 -2°C° 0 mm 4 m/S 744 mmHg 69%
    12:00 -1°C° 0 mm 4 m/S 744 mmHg 64%
    13:00 -1°C° 0 mm 4 m/S 744 mmHg 60%
    14:00 -1°C° 0 mm 4 m/S 744 mmHg 59%
    15:00 -1°C° 0 mm 4 m/S 744 mmHg 59%
    16:00 -1°C° 0 mm 5 m/S 744 mmHg 59%
    17:00 -2°C° 0 mm 4 m/S 744 mmHg 64%
    18:00 -3°C° 0 mm 4 m/S 744 mmHg 69%
    19:00 -4°C° 0 mm 3 m/S 744 mmHg 74%
    20:00 -4°C° 0 mm 3 m/S 744 mmHg 75%
    21:00 -4°C° 0 mm 3 m/S 744 mmHg 76%
    22:00 -4°C° 0 mm 3 m/S 744 mmHg 77%
    23:00 -5°C° 0 mm 4 m/S 745 mmHg 77%

    Morgen, 22 Februar, Donnerstag

    Zeit Temperatur Niederschläge Wind Luftdruck Luftfeuchtigkeit
    00:00 -5°C° 0 mm 4 m/S 745 mmHg 78%
    01:00 -5°C° 0 mm 4 m/S 745 mmHg 78%
    02:00 -5°C° 0 mm 4 m/S 744 mmHg 77%
    03:00 -5°C° 0 mm 4 m/S 744 mmHg 76%
    04:00 -7°C° 0 mm 4 m/S 744 mmHg 75%
    05:00 -7°C° 0 mm 4 m/S 744 mmHg 74%
    06:00 -7°C° 0 mm 4 m/S 744 mmHg 72%
    07:00 -7°C° 0 mm 4 m/S 744 mmHg 70%
    08:00 -5°C° 0 mm 4 m/S 744 mmHg 65%
    09:00 -5°C° 0 mm 5 m/S 744 mmHg 60%
    10:00 -5°C° 0 mm 6 m/S 745 mmHg 54%
    11:00 -4°C° 0 mm 6 m/S 744 mmHg 53%
    12:00 -3°C° 0 mm 6 m/S 744 mmHg 51%
    13:00 -2°C° 0 mm 6 m/S 744 mmHg 49%
    14:00 -3°C° 0 mm 6 m/S 744 mmHg 50%
    15:00 -3°C° 0 mm 6 m/S 744 mmHg 51%
    16:00 -3°C° 0 mm 6 m/S 743 mmHg 51%
    17:00 -4°C° 0 mm 5 m/S 743 mmHg 56%
    18:00 -5°C° 0 mm 5 m/S 743 mmHg 61%
    19:00 -4°C° 0 mm 4 m/S 743 mmHg 66%
    20:00 -5°C° 0 mm 4 m/S 744 mmHg 67%
    21:00 -5°C° 0 mm 4 m/S 744 mmHg 67%
    22:00 -5°C° 0 mm 4 m/S 744 mmHg 68%
    23:00 -7°C° 0 mm 4 m/S 744 mmHg 68%

    übermorgen, 23 Februar, Freitag

    Zeit Temperatur Niederschläge Wind Luftdruck Luftfeuchtigkeit
    00:00 -7°C° 0 mm 4 m/S 744 mmHg 68%
    01:00 -7°C° 0 mm 4 m/S 744 mmHg 68%
    02:00 -7°C° 0 mm 4 m/S 744 mmHg 69%
    03:00 -7°C° 0 mm 4 m/S 743 mmHg 69%
    04:00 -8°C° 0 mm 5 m/S 743 mmHg 69%
    05:00 -8°C° 0 mm 5 m/S 743 mmHg 67%
    06:00 -8°C° 0 mm 5 m/S 743 mmHg 66%
    07:00 -10°C° 0 mm 5 m/S 744 mmHg 64%
    08:00 -8°C° 0 mm 5 m/S 744 mmHg 59%
    09:00 -8°C° 0 mm 6 m/S 744 mmHg 53%
    10:00 -8°C° 0 mm 6 m/S 744 mmHg 48%
    11:00 -5°C° 0 mm 6 m/S 744 mmHg 45%
    12:00 -4°C° 0 mm 6 m/S 744 mmHg 42%
    13:00 -3°C° 0 mm 6 m/S 744 mmHg 39%
    14:00 -3°C° 0 mm 6 m/S 744 mmHg 39%
    15:00 -3°C° 0 mm 7 m/S 744 mmHg 39%
    16:00 -3°C° 0 mm 7 m/S 743 mmHg 39%
    17:00 -4°C° 0 mm 6 m/S 744 mmHg 41%
    18:00 -5°C° 0 mm 6 m/S 744 mmHg 44%
    19:00 -6°C° 0 mm 6 m/S 744 mmHg 47%
    20:00 -6°C° 0 mm 6 m/S 744 mmHg 48%
    21:00 -8°C° 0 mm 6 m/S 744 mmHg 48%
    22:00 -8°C° 0 mm 6 m/S 745 mmHg 48%
    23:00 -8°C° 0 mm 6 m/S 745 mmHg 48%

    24 Februar, Samstag

    Zeit Temperatur Niederschläge Wind Luftdruck Luftfeuchtigkeit
    00:00 -8°C° 0 mm 6 m/S 745 mmHg 48%
    01:00 -8°C° 0 mm 6 m/S 745 mmHg 47%
    02:00 -9°C° 0 mm 6 m/S 745 mmHg 47%
    03:00 -9°C° 0 mm 6 m/S 745 mmHg 47%
    04:00 -9°C° 0 mm 6 m/S 745 mmHg 47%
    05:00 -9°C° 0 mm 6 m/S 745 mmHg 49%
    06:00 -9°C° 0 mm 6 m/S 745 mmHg 51%
    07:00 -9°C° 0 mm 6 m/S 745 mmHg 52%
    08:00 -8°C° 0 mm 6 m/S 746 mmHg 53%
    09:00 -7°C° 0 mm 7 m/S 746 mmHg 53%
    10:00 -6°C° 0 mm 7 m/S 746 mmHg 53%
    11:00 -5°C° 0 mm 8 m/S 746 mmHg 50%
    12:00 -4°C° 0 mm 8 m/S 746 mmHg 47%
    13:00 -4°C° 0 mm 8 m/S 746 mmHg 44%
    14:00 -4°C° 0 mm 8 m/S 746 mmHg 42%
    15:00 -4°C° 0 mm 8 m/S 746 mmHg 39%
    16:00 -5°C° 0 mm 8 m/S 746 mmHg 37%
    17:00 -6°C° 0 mm 8 m/S 746 mmHg 39%
    18:00 -7°C° 0 mm 8 m/S 747 mmHg 41%
    19:00 -8°C° 0 mm 7 m/S 747 mmHg 42%
    20:00 -8°C° 0 mm 7 m/S 747 mmHg 43%
    21:00 -8°C° 0 mm 7 m/S 747 mmHg 44%
    22:00 -9°C° 0 mm 7 m/S 748 mmHg 44%
    23:00 -9°C° 0 mm 7 m/S 748 mmHg 44%

    25 Februar, Sonntag

    Zeit Temperatur Niederschläge Wind Luftdruck Luftfeuchtigkeit
    00:00 -11°C° 0 mm 7 m/S 748 mmHg 44%
    01:00 -10°C° 0 mm 6 m/S 748 mmHg 44%
    02:00 -10°C° 0 mm 6 m/S 748 mmHg 44%
    03:00 -11°C° 0 mm 6 m/S 748 mmHg 45%
    04:00 -11°C° 0 mm 6 m/S 748 mmHg 45%
    05:00 -11°C° 0 mm 6 m/S 748 mmHg 47%
    06:00 -12°C° 0 mm 6 m/S 748 mmHg 49%
    07:00 -12°C° 0 mm 6 m/S 748 mmHg 51%
    08:00 -11°C° 0 mm 6 m/S 748 mmHg 49%
    09:00 -11°C° 0 mm 6 m/S 748 mmHg 47%
    10:00 -10°C° 0 mm 6 m/S 748 mmHg 45%
    11:00 -9°C° 0 mm 7 m/S 748 mmHg 41%
    12:00 -8°C° 0 mm 7 m/S 748 mmHg 37%
    13:00 -8°C° 0 mm 7 m/S 748 mmHg 33%
    14:00 -8°C° 0 mm 7 m/S 747 mmHg 33%
    15:00 -8°C° 0 mm 7 m/S 747 mmHg 33%
    16:00 -8°C° 0 mm 7 m/S 747 mmHg 32%
    17:00 -8°C° 0 mm 6 m/S 747 mmHg 35%
    18:00 -9°C° 0 mm 6 m/S 747 mmHg 38%
    19:00 -10°C° 0 mm 5 m/S 747 mmHg 40%
    20:00 -10°C° 0 mm 5 m/S 747 mmHg 41%
    21:00 -10°C° 0 mm 5 m/S 747 mmHg 42%
    22:00 -11°C° 0 mm 5 m/S 747 mmHg 43%
    23:00 -11°C° 0 mm 5 m/S 747 mmHg 44%

    26 Februar, Montag

    Zeit Temperatur Niederschläge Wind Luftdruck Luftfeuchtigkeit
    00:00 -11°C° 0 mm 5 m/S 747 mmHg 44%
    01:00 -12°C° 0 mm 5 m/S 747 mmHg 45%
    02:00 -12°C° 0 mm 5 m/S 747 mmHg 46%
    03:00 -12°C° 0 mm 5 m/S 747 mmHg 48%
    04:00 -12°C° 0 mm 4 m/S 746 mmHg 49%
    05:00 -12°C° 0 mm 4 m/S 746 mmHg 50%
    06:00 -12°C° 0 mm 4 m/S 746 mmHg 51%
    07:00 -12°C° 0 mm 4 m/S 746 mmHg 53%
    08:00 -13°C° 0 mm 5 m/S 746 mmHg 50%
    09:00 -12°C° 0 mm 5 m/S 746 mmHg 47%
    10:00 -11°C° 0 mm 5 m/S 746 mmHg 44%
    11:00 -11°C° 0 mm 6 m/S 746 mmHg 41%
    12:00 -10°C° 0 mm 6 m/S 745 mmHg 39%
    13:00 -9°C° 0 mm 6 m/S 745 mmHg 36%
    14:00 -9°C° 0 mm 6 m/S 745 mmHg 36%
    15:00 -9°C° 0 mm 6 m/S 744 mmHg 35%
    16:00 -9°C° 0 mm 6 m/S 744 mmHg 35%
    17:00 -10°C° 0 mm 5 m/S 744 mmHg 37%
    18:00 -9°C° 0 mm 4 m/S 744 mmHg 39%
    19:00 -10°C° 0 mm 4 m/S 744 mmHg 42%
    20:00 -10°C° 0 mm 4 m/S 744 mmHg 43%
    21:00 -10°C° 0 mm 4 m/S 744 mmHg 43%
    22:00 -11°C° 0 mm 4 m/S 744 mmHg 44%
    23:00 -10°C° 0 mm 3 m/S 743 mmHg 45%
    Mehr zeigen